Time,TemperatureF,DewpointF,PressureIn,WindDirection,WindDirectionDegrees,WindSpeedMPH,WindSpeedGustMPH,Humidity,HourlyPrecipIn,Conditions,Clouds,dailyrainin,SoftwareType,DateUTC
2013-07-27 00:00:00,66.1,62.8,29.98,SSE,166,0.0,0.0,89,0.00,,,0.00,Wunderground v.1.13,2013-07-27 04:00:00,
2013-07-27 00:05:00,66.1,62.8,29.98,SSE,166,0.0,0.0,89,0.00,,,0.00,Wunderground v.1.13,2013-07-27 04:05:00,
2013-07-27 00:10:00,66.2,62.9,29.98,SSE,166,0.0,0.0,89,0.00,,,0.00,Wunderground v.1.13,2013-07-27 04:10:00,
2013-07-27 00:15:00,66.5,62.8,29.98,SSE,166,0.0,0.0,88,0.00,,,0.00,Wunderground v.1.13,2013-07-27 04:15:00,
2013-07-27 00:25:00,66.7,62.7,29.98,SSE,166,0.0,0.0,87,0.00,,,0.00,Wunderground v.1.13,2013-07-27 04:25:00,
2013-07-27 00:30:00,66.7,62.7,29.98,SSE,166,0.0,0.0,87,0.00,,,0.00,Wunderground v.1.13,2013-07-27 04:30:00,
2013-07-27 00:35:00,66.7,62.7,29.97,SSE,166,0.0,0.0,87,0.00,,,0.00,Wunderground v.1.13,2013-07-27 04:35:00,
2013-07-27 00:45:00,66.7,62.7,29.97,SSE,166,0.0,0.0,87,0.00,,,0.00,Wunderground v.1.13,2013-07-27 04:45:00,
2013-07-27 00:50:00,66.8,62.8,29.97,SSE,166,0.0,0.0,87,0.00,,,0.00,Wunderground v.1.13,2013-07-27 04:50:00,
2013-07-27 00:55:00,66.8,62.8,29.97,SSE,166,0.0,0.0,87,0.00,,,0.00,Wunderground v.1.13,2013-07-27 04:55:00,
2013-07-27 01:00:00,66.8,62.8,29.97,SSE,166,0.0,0.0,87,0.00,,,0.00,Wunderground v.1.13,2013-07-27 05:00:00,
2013-07-27 01:10:00,66.2,62.2,29.96,SSE,166,0.0,0.0,87,0.00,,,0.00,Wunderground v.1.13,2013-07-27 05:10:00,
2013-07-27 01:15:00,65.9,62.2,29.96,SSE,166,0.0,0.0,88,0.00,,,0.00,Wunderground v.1.13,2013-07-27 05:15:00,
2013-07-27 01:25:00,65.4,62.1,29.96,SSE,166,0.0,0.0,89,0.00,,,0.00,Wunderground v.1.13,2013-07-27 05:25:00,
2013-07-27 01:35:00,65.2,62.2,29.95,SSE,166,0.0,0.0,90,0.00,,,0.00,Wunderground v.1.13,2013-07-27 05:35:00,
2013-07-27 01:40:00,65.1,62.1,29.95,SSE,166,0.0,0.0,90,0.00,,,0.00,Wunderground v.1.13,2013-07-27 05:40:00,
2013-07-27 01:50:00,65.1,62.4,29.95,SSE,166,0.0,0.0,91,0.00,,,0.00,Wunderground v.1.13,2013-07-27 05:50:00,
2013-07-27 01:55:00,65.0,62.3,29.95,SSE,166,0.0,0.0,91,0.00,,,0.00,Wunderground v.1.13,2013-07-27 05:55:00,
2013-07-27 02:00:00,65.0,62.3,29.95,SSE,166,0.0,0.0,91,0.00,,,0.00,Wunderground v.1.13,2013-07-27 06:00:00,
2013-07-27 02:10:00,65.5,62.8,29.94,SSE,166,0.0,0.0,91,0.00,,,0.00,Wunderground v.1.13,2013-07-27 06:10:00,
2013-07-27 02:20:00,65.8,63.1,29.94,SSE,166,0.0,0.0,91,0.00,,,0.00,Wunderground v.1.13,2013-07-27 06:20:00,
2013-07-27 02:30:00,65.9,62.9,29.94,SSE,166,0.0,0.0,90,0.00,,,0.00,Wunderground v.1.13,2013-07-27 06:30:00,
2013-07-27 02:40:00,66.1,63.1,29.94,SSE,166,0.0,0.0,90,0.00,,,0.00,Wunderground v.1.13,2013-07-27 06:40:00,
2013-07-27 02:50:00,66.2,62.9,29.94,SSE,166,0.0,0.0,89,0.00,,,0.00,Wunderground v.1.13,2013-07-27 06:50:00,
2013-07-27 02:55:00,65.9,62.6,29.94,SSE,166,0.0,0.0,89,0.00,,,0.00,Wunderground v.1.13,2013-07-27 06:55:00,
2013-07-27 03:05:00,65.4,62.4,29.93,SSE,166,0.0,0.0,90,0.00,,,0.00,Wunderground v.1.13,2013-07-27 07:05:00,
2013-07-27 03:15:00,65.3,62.3,29.93,SSE,166,0.0,0.0,90,0.00,,,0.00,Wunderground v.1.13,2013-07-27 07:15:00,
2013-07-27 03:25:00,65.2,62.5,29.93,SSE,166,0.0,0.0,91,0.00,,,0.00,Wunderground v.1.13,2013-07-27 07:25:00,
2013-07-27 03:35:00,65.1,62.4,29.93,SSE,166,0.0,0.0,91,0.00,,,0.00,Wunderground v.1.13,2013-07-27 07:35:00,
2013-07-27 03:45:00,65.0,62.3,29.93,SSE,166,0.0,0.0,91,0.00,,,0.00,Wunderground v.1.13,2013-07-27 07:45:00,
2013-07-27 03:50:00,65.0,62.3,29.93,SSE,166,0.0,0.0,91,0.00,,,0.00,Wunderground v.1.13,2013-07-27 07:50:00,
2013-07-27 04:00:00,65.0,62.3,29.92,SSE,166,0.0,0.0,91,0.00,,,0.00,Wunderground v.1.13,2013-07-27 08:00:00,
2013-07-27 04:10:00,64.9,62.2,29.92,SSE,166,0.0,0.0,91,0.00,,,0.00,Wunderground v.1.13,2013-07-27 08:10:00,
2013-07-27 04:20:00,64.9,62.2,29.92,SSE,166,0.0,0.0,91,0.00,,,0.00,Wunderground v.1.13,2013-07-27 08:20:00,
2013-07-27 04:25:00,64.8,62.1,29.92,SSE,166,0.0,0.0,91,0.00,,,0.00,Wunderground v.1.13,2013-07-27 08:25:00,
2013-07-27 04:35:00,64.9,62.5,29.92,SSE,166,0.0,0.0,92,0.00,,,0.00,Wunderground v.1.13,2013-07-27 08:35:00,
2013-07-27 04:45:00,64.9,62.5,29.92,SSE,166,0.0,0.0,92,0.00,,,0.00,Wunderground v.1.13,2013-07-27 08:45:00,
2013-07-27 04:55:00,64.9,62.5,29.92,SSE,166,0.0,0.0,92,0.00,,,0.00,Wunderground v.1.13,2013-07-27 08:55:00,
2013-07-27 05:00:00,64.9,62.5,29.92,SSE,166,0.0,0.0,92,0.00,,,0.00,Wunderground v.1.13,2013-07-27 09:00:00,
2013-07-27 05:10:00,65.0,62.6,29.92,SSE,166,0.0,0.0,92,0.00,,,0.00,Wunderground v.1.13,2013-07-27 09:10:00,
2013-07-27 05:20:00,65.2,63.1,29.92,SSE,166,0.0,0.0,93,0.00,,,0.00,Wunderground v.1.13,2013-07-27 09:20:00,
2013-07-27 05:30:00,65.3,62.9,29.92,SSE,166,0.0,0.0,92,0.00,,,0.00,Wunderground v.1.13,2013-07-27 09:30:00,
2013-07-27 05:40:00,65.4,63.0,29.92,SSE,166,0.0,0.0,92,0.00,,,0.00,Wunderground v.1.13,2013-07-27 09:40:00,
2013-07-27 05:50:00,65.4,63.0,29.92,SSE,166,0.0,0.0,92,0.00,,,0.00,Wunderground v.1.13,2013-07-27 09:50:00,
2013-07-27 05:55:00,65.3,62.9,29.92,SSE,166,0.0,0.0,92,0.00,,,0.00,Wunderground v.1.13,2013-07-27 09:55:00,
2013-07-27 06:00:00,65.3,63.2,29.92,SSE,166,0.0,0.0,93,0.00,,,0.00,Wunderground v.1.13,2013-07-27 10:00:00,
2013-07-27 06:10:00,65.2,62.8,29.92,SSE,166,0.0,0.0,92,0.00,,,0.00,Wunderground v.1.13,2013-07-27 10:10:00,
2013-07-27 06:20:00,65.2,62.8,29.92,SSE,166,0.0,0.0,92,0.00,,,0.00,Wunderground v.1.13,2013-07-27 10:20:00,
2013-07-27 06:30:00,65.2,63.1,29.92,SSE,166,0.0,0.0,93,0.00,,,0.00,Wunderground v.1.13,2013-07-27 10:30:00,
2013-07-27 06:40:00,65.1,63.0,29.92,SSE,166,0.0,0.0,93,0.00,,,0.01,Wunderground v.1.13,2013-07-27 10:40:00,
2013-07-27 06:50:00,65.0,62.9,29.91,SSE,166,0.0,0.0,93,0.00,,,0.01,Wunderground v.1.13,2013-07-27 10:50:00,
2013-07-27 06:55:00,65.0,62.9,29.91,SSE,166,0.0,0.0,93,0.00,,,0.01,Wunderground v.1.13,2013-07-27 10:55:00,
2013-07-27 07:05:00,65.0,62.9,29.91,SSE,166,0.0,0.0,93,0.00,,,0.01,Wunderground v.1.13,2013-07-27 11:05:00,
2013-07-27 07:15:00,65.0,63.2,29.92,SSE,166,0.0,0.0,94,0.00,,,0.01,Wunderground v.1.13,2013-07-27 11:15:00,
2013-07-27 07:25:00,65.2,63.4,29.92,SSE,166,0.0,0.0,94,0.00,,,0.01,Wunderground v.1.13,2013-07-27 11:25:00,
2013-07-27 07:35:00,65.4,63.6,29.92,SSE,166,0.0,0.0,94,0.00,,,0.01,Wunderground v.1.13,2013-07-27 11:35:00,
2013-07-27 07:45:00,65.5,63.7,29.93,SSE,166,0.0,0.0,94,0.00,,,0.01,Wunderground v.1.13,2013-07-27 11:45:00,
2013-07-27 07:50:00,65.5,63.7,29.93,SSE,166,0.0,0.0,94,0.00,,,0.01,Wunderground v.1.13,2013-07-27 11:50:00,
2013-07-27 08:00:00,65.6,63.8,29.93,SSE,166,0.0,0.0,94,0.00,,,0.01,Wunderground v.1.13,2013-07-27 12:00:00,
2013-07-27 08:10:00,65.6,63.8,29.93,SSE,166,0.0,0.0,94,0.00,,,0.01,Wunderground v.1.13,2013-07-27 12:10:00,
2013-07-27 08:20:00,65.7,63.9,29.94,South,180,1.0,3.0,94,0.00,,,0.01,Wunderground v.1.13,2013-07-27 12:20:00,
2013-07-27 08:25:00,65.7,63.6,29.93,SSW,203,2.0,3.0,93,0.00,,,0.01,Wunderground v.1.13,2013-07-27 12:25:00,
2013-07-27 08:35:00,65.9,63.8,29.93,SSW,203,1.0,1.0,93,0.00,,,0.01,Wunderground v.1.13,2013-07-27 12:35:00,
2013-07-27 08:45:00,66.0,63.9,29.93,SSW,203,0.0,0.0,93,0.00,,,0.01,Wunderground v.1.13,2013-07-27 12:45:00,
2013-07-27 08:50:00,65.9,63.5,29.93,SSW,203,0.0,0.0,92,0.00,,,0.01,Wunderground v.1.13,2013-07-27 12:50:00,
2013-07-27 09:00:00,65.9,63.5,29.93,SSW,203,0.0,0.0,92,0.00,,,0.01,Wunderground v.1.13,2013-07-27 13:00:00,
2013-07-27 09:05:00,65.9,63.5,29.92,SSW,203,0.0,0.0,92,0.00,,,0.02,Wunderground v.1.13,2013-07-27 13:05:00,
2013-07-27 09:15:00,66.1,64.0,29.93,SSW,203,0.0,0.0,93,0.00,,,0.02,Wunderground v.1.13,2013-07-27 13:15:00,
2013-07-27 09:20:00,66.1,64.0,29.93,SSW,203,0.0,0.0,93,0.05,,,0.03,Wunderground v.1.13,2013-07-27 13:20:00,
2013-07-27 09:30:00,66.2,64.1,29.93,SSW,203,0.0,0.0,93,0.04,,,0.03,Wunderground v.1.13,2013-07-27 13:30:00,
2013-07-27 09:40:00,66.2,64.1,29.93,SSW,203,0.0,0.0,93,0.00,,,0.03,Wunderground v.1.13,2013-07-27 13:40:00,
2013-07-27 09:45:00,66.1,64.0,29.93,SSW,203,1.0,1.0,93,0.00,,,0.03,Wunderground v.1.13,2013-07-27 13:45:00,
2013-07-27 09:55:00,66.3,64.2,29.93,SSW,203,0.0,0.0,93,0.00,,,0.04,Wunderground v.1.13,2013-07-27 13:55:00,
2013-07-27 10:05:00,66.2,64.1,29.92,SSW,203,0.0,0.0,93,0.00,,,0.04,Wunderground v.1.13,2013-07-27 14:05:00,
2013-07-27 10:15:00,66.2,64.1,29.92,SSW,204,0.0,0.0,93,0.00,,,0.04,Wunderground v.1.13,2013-07-27 14:15:00,
2013-07-27 10:20:00,66.4,64.3,29.92,SSW,204,0.0,0.0,93,0.00,,,0.04,Wunderground v.1.13,2013-07-27 14:20:00,
2013-07-27 10:30:00,66.4,63.7,29.92,SSW,204,0.0,0.0,91,0.00,,,0.04,Wunderground v.1.13,2013-07-27 14:30:00,
2013-07-27 10:40:00,66.4,63.4,29.92,SSW,204,0.0,0.0,90,0.00,,,0.04,Wunderground v.1.13,2013-07-27 14:40:00,
2013-07-27 10:50:00,66.5,63.8,29.92,WSW,239,1.0,1.0,91,0.00,,,0.04,Wunderground v.1.13,2013-07-27 14:50:00,
2013-07-27 10:55:00,66.7,64.3,29.92,WSW,239,0.0,0.0,92,0.00,,,0.04,Wunderground v.1.13,2013-07-27 14:55:00,
2013-07-27 11:00:00,66.9,64.5,29.92,WSW,239,0.0,0.0,92,0.00,,,0.04,Wunderground v.1.13,2013-07-27 15:00:00,
2013-07-27 11:10:00,66.8,64.1,29.92,WSW,239,0.0,0.0,91,0.00,,,0.04,Wunderground v.1.13,2013-07-27 15:10:00,
2013-07-27 11:20:00,66.9,64.2,29.92,SSE,166,0.0,0.0,91,0.00,,,0.04,Wunderground v.1.13,2013-07-27 15:20:00,
2013-07-27 11:30:00,67.0,64.6,29.92,SSE,148,1.0,1.0,92,0.00,,,0.05,Wunderground v.1.13,2013-07-27 15:30:00,
2013-07-27 11:40:00,67.0,64.3,29.92,SSE,163,2.0,2.0,91,0.08,,,0.06,Wunderground v.1.13,2013-07-27 15:40:00,
2013-07-27 11:50:00,67.0,64.6,29.93,South,191,2.0,2.0,92,0.05,,,0.07,Wunderground v.1.13,2013-07-27 15:50:00,
2013-07-27 12:00:00,67.0,64.6,29.92,South,190,1.0,1.0,92,0.08,,,0.08,Wunderground v.1.13,2013-07-27 16:00:00,
2013-07-27 12:05:00,67.0,64.6,29.92,South,179,1.0,1.0,92,0.07,,,0.09,Wunderground v.1.13,2013-07-27 16:05:00,
2013-07-27 12:15:00,67.2,64.8,29.91,SSW,192,0.0,0.0,92,0.09,,,0.10,Wunderground v.1.13,2013-07-27 16:15:00,
2013-07-27 12:25:00,67.1,64.7,29.91,SSW,194,1.0,2.0,92,0.06,,,0.11,Wunderground v.1.13,2013-07-27 16:25:00,
2013-07-27 12:35:00,67.1,64.4,29.91,SSW,193,3.0,3.0,91,0.04,,,0.11,Wunderground v.1.13,2013-07-27 16:35:00,
2013-07-27 12:45:00,67.1,63.7,29.90,SSW,209,5.0,6.0,89,0.00,,,0.11,Wunderground v.1.13,2013-07-27 16:45:00,
2013-07-27 12:55:00,67.2,64.2,29.90,South,172,4.0,4.0,90,0.00,,,0.11,Wunderground v.1.13,2013-07-27 16:55:00,
2013-07-27 13:05:00,67.2,64.2,29.89,SSE,157,4.0,5.0,90,0.00,,,0.11,Wunderground v.1.13,2013-07-27 17:05:00,
2013-07-27 13:10:00,67.2,64.2,29.89,SSE,155,5.0,5.0,90,0.00,,,0.11,Wunderground v.1.13,2013-07-27 17:10:00,
2013-07-27 13:15:00,67.2,64.2,29.89,SSE,148,6.0,6.0,90,0.00,,,0.11,Wunderground v.1.13,2013-07-27 17:15:00,
2013-07-27 13:25:00,67.3,64.3,29.89,SSW,204,6.0,6.0,90,0.00,,,0.12,Wunderground v.1.13,2013-07-27 17:25:00,
2013-07-27 13:35:00,67.5,64.5,29.89,SSE,157,5.0,8.0,90,0.00,,,0.12,Wunderground v.1.13,2013-07-27 17:35:00,
2013-07-27 13:45:00,67.5,64.8,29.88,SSE,150,6.0,6.0,91,0.00,,,0.13,Wunderground v.1.13,2013-07-27 17:45:00,
2013-07-27 13:55:00,67.4,64.7,29.88,SSE,157,5.0,5.0,91,0.00,,,0.13,Wunderground v.1.13,2013-07-27 17:55:00,
2013-07-27 14:05:00,67.4,64.7,29.88,SSE,163,7.0,7.0,91,0.00,,,0.13,Wunderground v.1.13,2013-07-27 18:05:00,
2013-07-27 14:15:00,67.5,64.8,29.88,SE,136,7.0,9.0,91,0.00,,,0.13,Wunderground v.1.13,2013-07-27 18:15:00,
2013-07-27 14:20:00,67.5,64.8,29.88,SE,143,6.0,8.0,91,0.00,,,0.13,Wunderground v.1.13,2013-07-27 18:20:00,
2013-07-27 14:30:00,67.0,64.6,29.88,SSE,157,10.0,10.0,92,0.00,,,0.14,Wunderground v.1.13,2013-07-27 18:30:00,
2013-07-27 14:35:00,66.9,64.5,29.87,SSE,153,9.0,9.0,92,0.00,,,0.14,Wunderground v.1.13,2013-07-27 18:35:00,
2013-07-27 14:45:00,67.0,64.9,29.88,SSE,162,8.0,8.0,93,0.00,,,0.14,Wunderground v.1.13,2013-07-27 18:45:00,
2013-07-27 14:55:00,66.7,64.6,29.87,South,175,8.0,8.0,93,0.00,,,0.15,Wunderground v.1.13,2013-07-27 18:55:00,
2013-07-27 15:05:00,66.6,64.8,29.87,South,171,8.0,8.0,94,0.00,,,0.15,Wunderground v.1.13,2013-07-27 19:05:00,
2013-07-27 15:15:00,66.4,64.3,29.87,SSE,166,8.0,9.0,93,0.00,,,0.15,Wunderground v.1.13,2013-07-27 19:15:00,
2013-07-27 15:25:00,66.2,64.4,29.86,SSE,159,8.0,8.0,94,0.00,,,0.16,Wunderground v.1.13,2013-07-27 19:25:00,
2013-07-27 15:30:00,66.2,64.4,29.87,South,180,6.0,6.0,94,0.00,,,0.16,Wunderground v.1.13,2013-07-27 19:30:00,
2013-07-27 15:40:00,66.3,64.5,29.86,South,171,6.0,6.0,94,0.00,,,0.16,Wunderground v.1.13,2013-07-27 19:40:00,
2013-07-27 15:50:00,66.6,64.8,29.86,South,175,6.0,6.0,94,0.00,,,0.16,Wunderground v.1.13,2013-07-27 19:50:00,
2013-07-27 16:00:00,66.9,64.8,29.86,SSE,163,4.0,6.0,93,0.00,,,0.16,Wunderground v.1.13,2013-07-27 20:00:00,
2013-07-27 16:10:00,67.1,65.0,29.86,SSE,147,5.0,5.0,93,0.00,,,0.16,Wunderground v.1.13,2013-07-27 20:10:00,
2013-07-27 16:20:00,67.8,65.7,29.85,SSE,156,6.0,6.0,93,0.00,,,0.16,Wunderground v.1.13,2013-07-27 20:20:00,
2013-07-27 16:25:00,68.3,65.9,29.85,SSE,150,6.0,6.0,92,0.00,,,0.16,Wunderground v.1.13,2013-07-27 20:25:00,
2013-07-27 16:35:00,68.6,65.5,29.85,SSE,150,7.0,8.0,90,0.00,,,0.16,Wunderground v.1.13,2013-07-27 20:35:00,
2013-07-27 16:45:00,69.0,65.9,29.85,SSE,148,6.0,6.0,90,0.00,,,0.16,Wunderground v.1.13,2013-07-27 20:45:00,
2013-07-27 16:50:00,69.6,66.2,29.84,SSW,205,5.0,8.0,89,0.00,,,0.16,Wunderground v.1.13,2013-07-27 20:50:00,
2013-07-27 17:00:00,70.2,66.1,29.84,South,186,6.0,9.0,87,0.00,,,0.16,Wunderground v.1.13,2013-07-27 21:00:00,
2013-07-27 17:10:00,70.4,66.0,29.84,SSE,153,7.0,7.0,86,0.00,,,0.16,Wunderground v.1.13,2013-07-27 21:10:00,
2013-07-27 17:15:00,70.6,66.2,29.84,SSW,208,7.0,7.0,86,0.00,,,0.16,Wunderground v.1.13,2013-07-27 21:15:00,
2013-07-27 17:25:00,71.3,66.6,29.84,SSW,192,7.0,8.0,85,0.00,,,0.16,Wunderground v.1.13,2013-07-27 21:25:00,
2013-07-27 17:30:00,71.3,65.9,29.84,South,186,7.0,7.0,83,0.00,,,0.16,Wunderground v.1.13,2013-07-27 21:30:00,
2013-07-27 17:40:00,71.3,65.9,29.83,South,188,6.0,6.0,83,0.00,,,0.16,Wunderground v.1.13,2013-07-27 21:40:00,
2013-07-27 17:50:00,71.8,66.0,29.83,SSW,197,6.0,9.0,82,0.00,,,0.16,Wunderground v.1.13,2013-07-27 21:50:00,
2013-07-27 18:00:00,72.1,66.3,29.83,South,180,7.0,8.0,82,0.00,,,0.16,Wunderground v.1.13,2013-07-27 22:00:00,
2013-07-27 18:05:00,71.8,66.0,29.83,South,173,7.0,8.0,82,0.00,,,0.16,Wunderground v.1.13,2013-07-27 22:05:00,
2013-07-27 18:15:00,72.2,65.7,29.83,SSW,205,6.0,12.0,80,0.00,,,0.16,Wunderground v.1.13,2013-07-27 22:15:00,
2013-07-27 18:20:00,72.1,65.6,29.83,South,173,6.0,6.0,80,0.00,,,0.16,Wunderground v.1.13,2013-07-27 22:20:00,
2013-07-27 18:30:00,72.2,65.3,29.83,South,188,5.0,5.0,79,0.00,,,0.16,Wunderground v.1.13,2013-07-27 22:30:00,
2013-07-27 18:40:00,72.3,65.8,29.83,SSE,151,4.0,8.0,80,0.00,,,0.16,Wunderground v.1.13,2013-07-27 22:40:00,
2013-07-27 18:50:00,72.0,65.8,29.83,SSE,167,5.0,5.0,81,0.00,,,0.16,Wunderground v.1.13,2013-07-27 22:50:00,
2013-07-27 19:00:00,71.7,65.6,29.83,South,175,5.0,7.0,81,0.00,,,0.16,Wunderground v.1.13,2013-07-27 23:00:00,
2013-07-27 19:10:00,71.5,65.7,29.83,SSW,199,5.0,6.0,82,0.00,,,0.16,Wunderground v.1.13,2013-07-27 23:10:00,
2013-07-27 19:15:00,71.4,65.6,29.83,SSW,192,5.0,5.0,82,0.00,,,0.16,Wunderground v.1.13,2013-07-27 23:15:00,
2013-07-27 19:20:00,71.3,65.2,29.83,South,178,5.0,6.0,81,0.00,,,0.16,Wunderground v.1.13,2013-07-27 23:20:00,
2013-07-27 19:25:00,71.2,64.7,29.83,SSE,159,5.0,6.0,80,0.00,,,0.16,Wunderground v.1.13,2013-07-27 23:25:00,
2013-07-27 19:35:00,71.0,64.5,29.83,South,169,3.0,3.0,80,0.00,,,0.16,Wunderground v.1.13,2013-07-27 23:35:00,
2013-07-27 19:45:00,70.8,64.0,29.84,SSW,194,4.0,4.0,79,0.00,,,0.16,Wunderground v.1.13,2013-07-27 23:45:00,
2013-07-27 19:55:00,70.6,63.8,29.84,South,169,5.0,5.0,79,0.00,,,0.16,Wunderground v.1.13,2013-07-27 23:55:00,
2013-07-27 20:05:00,70.6,63.8,29.84,South,182,3.0,3.0,79,0.00,,,0.16,Wunderground v.1.13,2013-07-28 00:05:00,
2013-07-27 20:15:00,70.6,64.1,29.84,South,173,3.0,7.0,80,0.00,,,0.16,Wunderground v.1.13,2013-07-28 00:15:00,
2013-07-27 20:20:00,70.5,64.4,29.84,South,172,5.0,5.0,81,0.00,,,0.16,Wunderground v.1.13,2013-07-28 00:20:00,
2013-07-27 20:30:00,70.2,64.4,29.85,SSE,155,5.0,7.0,82,0.00,,,0.16,Wunderground v.1.13,2013-07-28 00:30:00,
2013-07-27 20:40:00,70.0,64.6,29.85,South,173,5.0,5.0,83,0.00,,,0.16,Wunderground v.1.13,2013-07-28 00:40:00,
2013-07-27 20:45:00,70.0,64.9,29.85,SSE,160,5.0,6.0,84,0.00,,,0.16,Wunderground v.1.13,2013-07-28 00:45:00,
2013-07-27 20:55:00,69.8,64.7,29.85,South,190,3.0,3.0,84,0.00,,,0.16,Wunderground v.1.13,2013-07-28 00:55:00,
2013-07-27 21:00:00,69.7,64.3,29.85,South,185,4.0,7.0,83,0.00,,,0.16,Wunderground v.1.13,2013-07-28 01:00:00,
2013-07-27 21:10:00,69.7,64.3,29.85,SSW,192,4.0,4.0,83,0.00,,,0.16,Wunderground v.1.13,2013-07-28 01:10:00,
2013-07-27 21:20:00,69.4,64.0,29.85,SSE,166,1.0,1.0,83,0.00,,,0.16,Wunderground v.1.13,2013-07-28 01:20:00,
2013-07-27 21:25:00,69.2,64.2,29.85,SSE,166,1.0,2.0,84,0.00,,,0.16,Wunderground v.1.13,2013-07-28 01:25:00,
2013-07-27 21:35:00,68.8,63.8,29.86,SSE,165,3.0,3.0,84,0.00,,,0.16,Wunderground v.1.13,2013-07-28 01:35:00,
2013-07-27 21:45:00,68.6,63.9,29.86,SSE,161,1.0,4.0,85,0.00,,,0.16,Wunderground v.1.13,2013-07-28 01:45:00,
2013-07-27 21:50:00,68.4,63.7,29.86,SSE,159,1.0,2.0,85,0.00,,,0.16,Wunderground v.1.13,2013-07-28 01:50:00,
2013-07-27 22:00:00,68.0,63.7,29.86,SSE,159,1.0,1.0,86,0.00,,,0.16,Wunderground v.1.13,2013-07-28 02:00:00,
2013-07-27 22:10:00,67.6,63.3,29.87,SSE,159,1.0,1.0,86,0.00,,,0.16,Wunderground v.1.13,2013-07-28 02:10:00,
2013-07-27 22:20:00,67.2,63.2,29.87,SSE,159,0.0,0.0,87,0.00,,,0.16,Wunderground v.1.13,2013-07-28 02:20:00,
2013-07-27 22:25:00,67.1,63.1,29.87,SSE,159,0.0,0.0,87,0.00,,,0.16,Wunderground v.1.13,2013-07-28 02:25:00,
2013-07-27 22:30:00,66.9,63.2,29.87,SSE,159,0.0,0.0,88,0.00,,,0.16,Wunderground v.1.13,2013-07-28 02:30:00,
2013-07-27 22:40:00,66.6,62.9,29.87,SSE,159,0.0,0.0,88,0.00,,,0.16,Wunderground v.1.13,2013-07-28 02:40:00,
2013-07-27 22:50:00,66.2,62.9,29.86,SSE,159,0.0,0.0,89,0.00,,,0.16,Wunderground v.1.13,2013-07-28 02:50:00,
2013-07-27 23:00:00,65.9,62.6,29.87,SSE,159,0.0,0.0,89,0.00,,,0.16,Wunderground v.1.13,2013-07-28 03:00:00,
2013-07-27 23:05:00,65.8,62.8,29.86,SSE,159,0.0,0.0,90,0.00,,,0.16,Wunderground v.1.13,2013-07-28 03:05:00,
2013-07-27 23:10:00,65.8,62.8,29.87,SSE,159,0.0,0.0,90,0.00,,,0.16,Wunderground v.1.13,2013-07-28 03:10:00,
2013-07-27 23:20:00,65.6,62.6,29.87,SSE,159,0.0,0.0,90,0.00,,,0.16,Wunderground v.1.13,2013-07-28 03:20:00,
2013-07-27 23:25:00,65.6,62.9,29.87,SSE,159,0.0,4.0,91,0.00,,,0.16,Wunderground v.1.13,2013-07-28 03:25:00,
2013-07-27 23:35:00,65.4,62.4,29.86,SSE,159,0.0,0.0,90,0.00,,,0.16,Wunderground v.1.13,2013-07-28 03:35:00,
2013-07-27 23:40:00,65.2,62.2,29.86,SSE,159,0.0,0.0,90,0.00,,,0.16,Wunderground v.1.13,2013-07-28 03:40:00,
2013-07-27 23:50:00,64.6,61.6,29.86,SSE,159,0.0,0.0,90,0.00,,,0.16,Wunderground v.1.13,2013-07-28 03:50:00,